Sturgeon Bay, WI

3:14 PM CDT on June 27, 2017 (GMT -0500)
Door County Cherryland

Weather History for KSUE - November, 2013

Change the Weather History Date:

Tuesday, November 26, 2013

  Actual Average Record
Temperature  
Mean Temperature 24 °F -  
Max Temperature 33 °F 38 °F 60 °F (1914)
Min Temperature 15 °F 27 °F 8 °F (1932)
Degree Days  
Heating Degree Days 41    
Moisture  
Dew Point 14 °F    
Average Humidity 62    
Maximum Humidity 86    
Minimum Humidity 40    
Precipitation  
Precipitation 0.00 in - - ()
Sea Level Pressure  
Sea Level Pressure 30.02 in    
Wind  
Wind Speed 12 mph (NW)    
Max Wind Speed 22 mph    
Max Gust Speed 29 mph    
Visibility 10 miles    
Events      
Averages and records for this station are not official NWS values.
T = Trace of Precipitation, MM = Missing Value Source: NWS Daily Summary

Daily Weather History Graph

Daily Weather History Graph

Search for Another Location

Airport or City:

Trip Planner

Search our weather history database for the weather conditions in past years. The results will help you decide how hot, cold, wet, or windy it might be!

Date:

Astronomy

Nov. 26, 2013 Rise Set
Actual Time 7:01 AM CST 4:12 PM CST
Civil Twilight 6:28 AM CST 4:45 PM CST
Nautical Twilight 5:52 AM CST 5:21 PM CST
Astronomical Twilight 5:17 AM CST 5:56 PM CST
Moon No Moon Rise 12:34 PM CST (11/26)
Length of Visible Light 10h 16m
Length of Day
9h 10m
Last Quarter, 41% of the Moon is Illuminated
Nov 26
Last Quarter
Dec 2
New
Dec 9
First Quarter
Dec 17
Full
Dec 25
Last Quarter

Hourly Weather History & Observations

Time (CST) Temp. Windchill Dew Point Humidity Pressure Visibility Wind Dir Wind Speed Gust Speed Precip Events Conditions
12:15 AM 32.0 °F 23.6 °F 24.8 °F 75% 29.92 in 10.0 mi SW 10.4 mph - N/A   Overcast
12:35 AM 32.0 °F 23.6 °F 24.8 °F 75% 29.92 in 10.0 mi SW 10.4 mph - N/A   Overcast
12:55 AM 32.0 °F 22.5 °F 24.8 °F 75% 29.92 in 10.0 mi WSW 12.7 mph - N/A   Overcast
1:15 AM 33.8 °F 25.3 °F 23.0 °F 65% 29.91 in 10.0 mi WSW 11.5 mph - N/A   Overcast
1:35 AM 33.8 °F 24.8 °F 24.8 °F 70% 29.92 in 10.0 mi WSW 12.7 mph 16.1 mph N/A   Overcast
1:55 AM 33.8 °F 25.8 °F 23.0 °F 65% 29.93 in 10.0 mi WSW 10.4 mph - N/A   Overcast
2:15 AM 33.8 °F 25.8 °F 23.0 °F 65% 29.93 in 10.0 mi SW 10.4 mph - N/A   Overcast
2:35 AM 33.8 °F 24.8 °F 24.8 °F 70% 29.93 in 10.0 mi WSW 12.7 mph - N/A   Overcast
2:55 AM 33.8 °F 25.8 °F 24.8 °F 70% 29.92 in 10.0 mi WSW 10.4 mph - N/A   Overcast
3:15 AM 33.8 °F 26.4 °F 24.8 °F 70% 29.92 in 10.0 mi WSW 9.2 mph - N/A   Overcast
3:35 AM 33.8 °F 26.4 °F 24.8 °F 70% 29.93 in 10.0 mi WSW 9.2 mph - N/A   Overcast
3:55 AM 33.8 °F 26.4 °F 24.8 °F 70% 29.93 in 10.0 mi WSW 9.2 mph - N/A   Overcast
4:15 AM 33.8 °F 27.7 °F 24.8 °F 70% 29.94 in 10.0 mi WSW 6.9 mph - N/A   Overcast
4:35 AM 33.8 °F 28.6 °F 24.8 °F 70% 29.94 in 10.0 mi WSW 5.8 mph - N/A   Overcast
4:55 AM 33.8 °F 27.7 °F 24.8 °F 70% 29.94 in 10.0 mi West 6.9 mph - N/A   Overcast
5:15 AM 33.8 °F 26.4 °F 23.0 °F 65% 29.94 in 10.0 mi West 9.2 mph - N/A   Overcast
5:35 AM 33.8 °F 25.8 °F 21.2 °F 60% 29.94 in 10.0 mi WNW 10.4 mph - N/A   Overcast
5:55 AM 32.0 °F 25.6 °F 21.2 °F 64% 29.94 in 10.0 mi NW 6.9 mph - N/A   Overcast
6:15 AM 32.0 °F 24.8 °F 21.2 °F 64% 29.94 in 10.0 mi WNW 8.1 mph - N/A   Overcast
6:35 AM 32.0 °F 23.6 °F 23.0 °F 69% 29.94 in 10.0 mi NW 10.4 mph - N/A   Overcast
6:55 AM 30.2 °F 22.6 °F 23.0 °F 75% 29.95 in 10.0 mi WNW 8.1 mph - N/A   Overcast
7:15 AM 30.2 °F 22.6 °F 24.8 °F 80% 29.95 in 10.0 mi WNW 8.1 mph - N/A   Overcast
7:35 AM 30.2 °F 25.4 °F 24.8 °F 80% 29.96 in 6.0 mi West 4.6 mph - N/A   Overcast
7:55 AM 30.2 °F 25.4 °F 24.8 °F 80% 29.97 in 10.0 mi WNW 4.6 mph - N/A   Overcast
8:15 AM 30.2 °F 21.9 °F 26.6 °F 86% 29.98 in 10.0 mi NNW 9.2 mph - N/A   Overcast
8:35 AM 28.4 °F 18.5 °F 24.8 °F 86% 29.98 in 10.0 mi NNW 11.5 mph - N/A   Mostly Cloudy
8:55 AM 28.4 °F 19.1 °F 21.2 °F 74% 29.98 in 3.0 mi NNW 10.4 mph - N/A   Mostly Cloudy
9:15 AM 26.6 °F 12.4 °F 19.4 °F 74% 29.99 in 1.8 mi NW 21.9 mph 28.8 mph N/A   Overcast
9:35 AM 24.8 °F 12.4 °F 19.4 °F 80% 29.99 in 4.0 mi NW 15.0 mph 20.7 mph N/A   Overcast
9:55 AM 24.8 °F 11.5 °F 19.4 °F 80% 29.99 in 10.0 mi NNW 17.3 mph 23.0 mph N/A   Overcast
10:15 AM 24.8 °F 14.6 °F 15.8 °F 69% 30.00 in 10.0 mi NW 10.4 mph - N/A   Overcast
10:35 AM 24.8 °F 13.4 °F 15.8 °F 69% 30.00 in 10.0 mi NW 12.7 mph - N/A   Overcast
10:55 AM 24.8 °F 14.6 °F 12.2 °F 59% 30.00 in 10.0 mi NNW 10.4 mph 19.6 mph N/A   Overcast
11:15 AM 24.8 °F 12.9 °F 12.2 °F 59% 30.00 in 10.0 mi NNW 13.8 mph 20.7 mph N/A   Overcast
11:35 AM 24.8 °F 14.6 °F 10.4 °F 54% 30.00 in 10.0 mi NW 10.4 mph - N/A   Overcast
11:55 AM 26.6 °F 15.2 °F 8.6 °F 47% 29.99 in 10.0 mi NW 13.8 mph 19.6 mph N/A   Overcast
12:15 PM 26.6 °F 15.2 °F 8.6 °F 47% 29.99 in 10.0 mi NW 13.8 mph 18.4 mph N/A   Overcast
12:35 PM 26.6 °F 17.5 °F 10.4 °F 51% 29.99 in 10.0 mi NW 9.2 mph - N/A   Overcast
12:55 PM 28.4 °F 18.5 °F 8.6 °F 43% 30.00 in 10.0 mi NNW 11.5 mph 17.3 mph N/A   Scattered Clouds
1:15 PM 28.4 °F 19.7 °F 8.6 °F 43% 29.99 in 10.0 mi NNW 9.2 mph - N/A   Clear
1:35 PM 26.6 °F 16.2 °F 8.6 °F 47% 29.99 in 10.0 mi North 11.5 mph - N/A   Scattered Clouds
1:55 PM 28.4 °F 19.1 °F 8.6 °F 43% 30.00 in 10.0 mi NW 10.4 mph - N/A   Overcast
2:15 PM 28.4 °F 18.5 °F 6.8 °F 40% 30.00 in 10.0 mi NW 11.5 mph - N/A   Overcast
2:35 PM 28.4 °F 16.6 °F 6.8 °F 40% 30.01 in 10.0 mi NW 16.1 mph - N/A   Overcast
2:55 PM 26.6 °F 13.1 °F 10.4 °F 51% 30.02 in 10.0 mi North 19.6 mph 24.2 mph N/A   Overcast
3:15 PM 26.6 °F 13.8 °F 12.2 °F 55% 30.03 in 10.0 mi NNW 17.3 mph 24.2 mph N/A   Overcast
3:35 PM 24.8 °F 12.4 °F 10.4 °F 54% 30.04 in 10.0 mi NNW 15.0 mph 21.9 mph N/A   Mostly Cloudy
3:55 PM 24.8 °F 12.4 °F 10.4 °F 54% 30.04 in 10.0 mi North 15.0 mph 18.4 mph N/A   Overcast
4:15 PM 24.8 °F 11.9 °F 10.4 °F 54% 30.05 in 10.0 mi NNW 16.1 mph - N/A   Mostly Cloudy
4:35 PM 24.8 °F 10.7 °F 8.6 °F 50% 30.06 in 10.0 mi NNW 19.6 mph - N/A   Scattered Clouds
4:55 PM 23.0 °F 11.1 °F 8.6 °F 54% 30.07 in 10.0 mi NNW 12.7 mph 20.7 mph N/A   Mostly Cloudy
5:15 PM 21.2 °F 5.6 °F 6.8 °F 54% 30.08 in 10.0 mi NNW 20.7 mph 27.6 mph N/A   Scattered Clouds
5:35 PM 21.2 °F 7.3 °F 6.8 °F 54% 30.09 in 10.0 mi NNW 16.1 mph 26.5 mph N/A   Mostly Cloudy
5:55 PM 19.4 °F 4.1 °F 3.2 °F 49% 30.10 in 10.0 mi NNW 18.4 mph 26.5 mph N/A   Scattered Clouds
6:15 PM 19.4 °F 3.2 °F 3.2 °F 49% 30.11 in 10.0 mi NNW 20.7 mph - N/A   Partly Cloudy
6:35 PM 19.4 °F 2.8 °F 3.2 °F 49% 30.11 in 10.0 mi NNW 21.9 mph 27.6 mph N/A   Partly Cloudy
6:55 PM 17.6 °F 1.3 °F 1.4 °F 49% 30.12 in 10.0 mi NNW 19.6 mph 25.3 mph N/A   Clear
7:15 PM 17.6 °F 1.3 °F 3.2 °F 53% 30.13 in 10.0 mi NNW 19.6 mph 28.8 mph N/A   Mostly Cloudy
7:35 PM 17.6 °F 1.3 °F 1.4 °F 49% 30.13 in 10.0 mi NNW 19.6 mph 26.5 mph N/A   Overcast
7:55 PM 17.6 °F 1.7 °F 3.2 °F 53% 30.13 in 10.0 mi NNW 18.4 mph 28.8 mph N/A   Mostly Cloudy
8:15 PM 17.6 °F 1.3 °F 1.4 °F 49% 30.13 in 10.0 mi NNW 19.6 mph 28.8 mph N/A   Scattered Clouds
8:35 PM 17.6 °F 2.2 °F 3.2 °F 53% 30.13 in 10.0 mi NNW 17.3 mph 27.6 mph N/A   Scattered Clouds
8:55 PM 15.8 °F -0.6 °F 3.2 °F 58% 30.13 in 10.0 mi NNW 18.4 mph 23.0 mph N/A   Scattered Clouds
9:15 PM 15.8 °F -1.1 °F 5.0 °F 62% 30.13 in 10.0 mi NNW 19.6 mph 26.5 mph N/A   Mostly Cloudy
9:35 PM 15.8 °F 0.3 °F 6.8 °F 68% 30.14 in 10.0 mi NNW 16.1 mph 20.7 mph N/A   Scattered Clouds
9:55 PM 15.8 °F -0.2 °F 6.8 °F 68% 30.14 in 10.0 mi NNW 17.3 mph 24.2 mph N/A   Partly Cloudy
10:15 PM 15.8 °F 0.3 °F 6.8 °F 68% 30.14 in 10.0 mi NNW 16.1 mph - N/A   Scattered Clouds
10:35 PM 15.8 °F -0.2 °F 6.8 °F 68% 30.14 in 10.0 mi NW 17.3 mph 23.0 mph N/A   Scattered Clouds
10:55 PM 15.8 °F 0.3 °F 6.8 °F 68% 30.14 in 10.0 mi NW 16.1 mph 25.3 mph N/A   Partly Cloudy
11:15 PM 15.8 °F 0.3 °F 6.8 °F 68% 30.14 in 10.0 mi NNW 16.1 mph 23.0 mph N/A   Partly Cloudy
11:35 PM 15.8 °F -0.2 °F 6.8 °F 68% 30.13 in 10.0 mi NNW 17.3 mph 24.2 mph N/A   Partly Cloudy
11:55 PM 15.8 °F -0.6 °F 6.8 °F 68% 30.13 in 10.0 mi NNW 18.4 mph 26.5 mph N/A   Partly Cloudy